Regional Weather Roundup
Issued by NWS Nashville, TN

Home | Current Version | Previous Version | Text Only | Print | Product List | Glossary On
Versions: 1 2 3 4 5 6 7 8 9 10 11 12 13 14 15 16 17 18 19 20 21 22 23 24 25 26 27 28 29 30 31 32 33 34 35 36 37 38 39 40 41 42 43 44 45 46 47 48 49 50
000
ASUS44 KOHX 050210
RWROHX
MIDDLE TENNESSEE HOURLY WEATHER ROUNDUP
NATIONAL WEATHER SERVICE NASHVILLE TN
900 PM CDT WED MAY 04 2016

NOTE: "FAIR" INDICATES FEW OR NO CLOUDS BELOW 12,000 FEET WITH
NO SIGNIFICANT WEATHER AND/OR OBSTRUCTIONS TO VISIBILITY.

* THESE REPORTS ARE NOT UNDER NWS QUALITY CONTROL AND MAY NOT
  REPORT WEATHER SUCH AS PRECIPITATION AND FOG.


TNZ005>011-023>034-057-059-062>066-078-080-050300
...NORTHERN MIDDLE TENNESSEE...

CITY           SKY/WX    TMP DP  RH WIND       PRES   REMARKS
CLARKSVILLE    PTCLDY    53  43  68 N8        29.84R
CROSSVILLE     CLEAR     48  45  89 W5        29.78R
NASHVILLE      CLEAR     58  40  51 N12       29.81R
SMYRNA         CLEAR     57  44  62 N15       29.82R
SPARTA         CLOUDY    50  50 100 CALM      29.78R
$$
TNZ056-058-060-061-075>077-079-093>097-050300
...SOUTHERN MIDDLE TENNESSEE...

CITY           SKY/WX    TMP DP  RH WIND       PRES   REMARKS
COLUMBIA       CLEAR    N/A N/A N/A CALM      29.79R
FAYETTEVILLE   PTCLDY    54  50  87 CALM      29.80R
MCMINNVILLE    MOCLDY    50  50 100 CALM      29.80R
SHELBYVILLE    CLEAR     52  50  93 CALM      29.81R
TULLAHOMA        N/A     48  48 100 CALM      29.81R VSB 1
WINCHESTER     CLEAR     52  48  87 CALM      29.80R
$$


...KEY TO REMARKS...
VSB - VISIBILITY IN MILES
WCI - WIND CHILL INDEX
HX  - HEAT INDEX




USA.gov is the U.S. government's official web portal to all federal, state and local government web resources and services.